N1496D KBLF-4G5

Flight info

Callsign N1496D
Flight time N/A
Altitude 7000
Route BLF SITTR T426 JPU V117 WEELD
Aircraft C172/L-VGD/C

Departure

Time 2026-05-07 02:33
Airport Mercer County Airport (KBLF)

Arrival

Time N/A
Airport 4G5
Time Latitude Longitude Altitude Speed Heading
2026-05-07 02:21 37.29267 -81.20936 2853 ft 0 kts 141°
2026-05-07 02:26 37.29265 -81.20934 2853 ft 2 kts 125°
2026-05-07 02:26 37.29273 -81.20917 2852 ft 3 kts 355°
2026-05-07 02:27 37.29297 -81.20922 2854 ft 4 kts 358°
2026-05-07 02:27 37.29336 -81.20913 2855 ft 8 kts 17°
2026-05-07 02:27 37.29396 -81.20855 2854 ft 14 kts 43°
2026-05-07 02:27 37.29466 -81.20778 2857 ft 13 kts 42°
2026-05-07 02:28 37.29532 -81.20703 2855 ft 14 kts 41°
2026-05-07 02:28 37.29616 -81.20612 2854 ft 18 kts 41°
2026-05-07 02:28 37.29717 -81.20497 2856 ft 21 kts 42°
2026-05-07 02:28 37.29837 -81.20364 2854 ft 23 kts 40°
2026-05-07 02:29 37.29942 -81.20246 2856 ft 18 kts 43°
2026-05-07 02:29 37.30027 -81.20161 2857 ft 6 kts
2026-05-07 02:29 37.30028 -81.20161 2857 ft 0 kts 355°
2026-05-07 02:31 37.30058 -81.20187 2857 ft 8 kts 313°
2026-05-07 02:31 37.30049 -81.20245 2856 ft 9 kts 220°
2026-05-07 02:31 37.30046 -81.20249 2856 ft 0 kts 220°
2026-05-07 02:31 37.30044 -81.20251 2856 ft 5 kts 221°
2026-05-07 02:32 37.29889 -81.20424 2854 ft 53 kts 221°
2026-05-07 02:32 37.29529 -81.20811 2907 ft 78 kts 225°
2026-05-07 02:32 37.29087 -81.21280 3018 ft 89 kts 226°
2026-05-07 02:32 37.28600 -81.21831 3153 ft 98 kts 226°
2026-05-07 02:33 37.28079 -81.22390 3310 ft 100 kts 225°
2026-05-07 02:33 37.27605 -81.23007 3449 ft 98 kts 249°
2026-05-07 02:33 37.27628 -81.23844 3590 ft 101 kts 292°
2026-05-07 02:33 37.28093 -81.24501 3705 ft 105 kts 321°
2026-05-07 02:34 37.28786 -81.24851 3797 ft 111 kts 347°
2026-05-07 02:34 37.29489 -81.24411 3958 ft 122 kts 52°
2026-05-07 02:34 37.29815 -81.23429 4129 ft 121 kts 70°
2026-05-07 02:34 37.30079 -81.22459 4292 ft 114 kts 71°
2026-05-07 02:35 37.30336 -81.21509 4458 ft 116 kts 72°
2026-05-07 02:35 37.30591 -81.20552 4625 ft 115 kts 73°
2026-05-07 02:35 37.30846 -81.19589 4802 ft 117 kts 73°
2026-05-07 02:35 37.31098 -81.18639 4962 ft 115 kts 72°
2026-05-07 02:36 37.31350 -81.17690 5122 ft 113 kts 72°
2026-05-07 02:36 37.31602 -81.16743 5250 ft 117 kts 73°
2026-05-07 02:36 37.31853 -81.15798 5360 ft 112 kts 73°
2026-05-07 02:36 37.32104 -81.14841 5490 ft 119 kts 73°
2026-05-07 02:37 37.32365 -81.13851 5618 ft 120 kts 73°
2026-05-07 02:37 37.32632 -81.12836 5749 ft 125 kts 73°
2026-05-07 02:37 37.32910 -81.11776 5885 ft 129 kts 73°
2026-05-07 02:37 37.33191 -81.10713 6020 ft 128 kts 73°
2026-05-07 02:38 37.33663 -81.09808 6130 ft 123 kts 19°
2026-05-07 02:38 37.34436 -81.09613 6255 ft 108 kts 341°
2026-05-07 02:38 37.35186 -81.09692 6388 ft 110 kts 340°
2026-05-07 02:38 37.35953 -81.09752 6503 ft 110 kts 341°
2026-05-07 02:39 37.36718 -81.09804 6627 ft 109 kts 340°
2026-05-07 02:39 37.37469 -81.09853 6745 ft 110 kts 340°
2026-05-07 02:39 37.38233 -81.09901 6864 ft 110 kts 340°
2026-05-07 02:39 37.38991 -81.09943 6972 ft 106 kts 340°
2026-05-07 02:40 37.39734 -81.09990 6979 ft 109 kts 339°
2026-05-07 02:40 37.40515 -81.10042 6990 ft 116 kts 340°
2026-05-07 02:40 37.41344 -81.10091 6986 ft 121 kts 340°
2026-05-07 02:40 37.42195 -81.10140 6986 ft 124 kts 341°
2026-05-07 02:41 37.43065 -81.10191 6986 ft 126 kts 341°
2026-05-07 02:41 37.43952 -81.10243 6979 ft 128 kts 342°
2026-05-07 02:41 37.44833 -81.10294 6979 ft 129 kts 342°
2026-05-07 02:41 37.45715 -81.10344 6968 ft 124 kts 341°
2026-05-07 02:42 37.46575 -81.10397 6963 ft 123 kts 341°
2026-05-07 02:42 37.47423 -81.10451 6958 ft 121 kts 341°
2026-05-07 02:42 37.48250 -81.10498 6950 ft 118 kts 342°
2026-05-07 02:42 37.49073 -81.10552 6946 ft 119 kts 342°
2026-05-07 02:43 37.49896 -81.10603 6948 ft 119 kts 341°
2026-05-07 02:43 37.50734 -81.10656 6944 ft 119 kts 343°
2026-05-07 02:43 37.51555 -81.10706 6942 ft 118 kts 340°
2026-05-07 02:43 37.52374 -81.10756 6945 ft 118 kts 339°
2026-05-07 02:44 37.53201 -81.10807 6938 ft 119 kts 341°
2026-05-07 02:44 37.53999 -81.10852 6937 ft 112 kts 340°
2026-05-07 02:44 37.54779 -81.10903 6938 ft 112 kts 340°
2026-05-07 02:44 37.55514 -81.10946 6939 ft 99 kts 340°
2026-05-07 02:45 37.56214 -81.10995 6938 ft 104 kts 339°
2026-05-07 02:45 37.56943 -81.11040 6944 ft 105 kts 338°
2026-05-07 02:45 37.57696 -81.11092 6961 ft 113 kts 339°
2026-05-07 02:45 37.58509 -81.11143 6966 ft 122 kts 342°
2026-05-07 02:46 37.59344 -81.11183 6971 ft 117 kts 340°
2026-05-07 02:46 37.60168 -81.11236 6971 ft 121 kts 340°
2026-05-07 02:46 37.61010 -81.11284 6973 ft 121 kts 341°
2026-05-07 02:46 37.61845 -81.11334 6977 ft 119 kts 340°
2026-05-07 02:47 37.62671 -81.11385 6980 ft 119 kts 340°
2026-05-07 02:47 37.63508 -81.11438 6980 ft 121 kts 341°
2026-05-07 02:47 37.64350 -81.11488 6980 ft 121 kts 340°
2026-05-07 02:47 37.65176 -81.11536 6980 ft 117 kts 339°
2026-05-07 02:48 37.65714 -81.11570 6979 ft 117 kts 339°
2026-05-07 02:48 37.66519 -81.11620 6983 ft 115 kts 339°
2026-05-07 02:48 37.67323 -81.11671 6977 ft 115 kts 339°
2026-05-07 02:48 37.68120 -81.11721 6988 ft 117 kts 339°
2026-05-07 02:49 37.68948 -81.11774 6999 ft 122 kts 340°
2026-05-07 02:49 37.69807 -81.11828 7003 ft 125 kts 340°
2026-05-07 02:49 37.70685 -81.11878 6999 ft 127 kts 340°
2026-05-07 02:49 37.71568 -81.11930 6996 ft 127 kts 340°
2026-05-07 02:50 37.72450 -81.11983 7000 ft 128 kts 340°
2026-05-07 02:50 37.73339 -81.12036 6994 ft 127 kts 341°
2026-05-07 02:50 37.74209 -81.12088 6995 ft 125 kts 340°
2026-05-07 02:50 37.75078 -81.12144 6991 ft 124 kts 340°
2026-05-07 02:51 37.75943 -81.12197 6994 ft 124 kts 340°
2026-05-07 02:51 37.76813 -81.12252 6999 ft 125 kts 339°
2026-05-07 02:51 37.77690 -81.12306 6997 ft 126 kts 340°
2026-05-07 02:51 37.78554 -81.12400 6998 ft 123 kts 335°
2026-05-07 02:52 37.79389 -81.12526 6996 ft 122 kts 335°
2026-05-07 02:52 37.80227 -81.12650 6992 ft 121 kts 335°
2026-05-07 02:52 37.81059 -81.12774 6996 ft 121 kts 334°
2026-05-07 02:52 37.81897 -81.12898 6994 ft 121 kts 334°
2026-05-07 02:53 37.82723 -81.13019 6995 ft 119 kts 334°
2026-05-07 02:53 37.83550 -81.13145 7000 ft 121 kts 334°
2026-05-07 02:53 37.84386 -81.13268 6995 ft 120 kts 334°
2026-05-07 02:53 37.85212 -81.13389 6995 ft 119 kts 335°
2026-05-07 02:54 37.86044 -81.13514 6995 ft 121 kts 335°
2026-05-07 02:54 37.86871 -81.13636 6997 ft 118 kts 334°
2026-05-07 02:54 37.87691 -81.13759 6994 ft 119 kts 334°
2026-05-07 02:54 37.88517 -81.13882 6994 ft 120 kts 334°
2026-05-07 02:55 37.89344 -81.14003 6990 ft 119 kts 334°
2026-05-07 02:55 37.90174 -81.14129 6997 ft 121 kts 335°
2026-05-07 02:55 37.91024 -81.14255 6996 ft 123 kts 336°
2026-05-07 02:55 37.91864 -81.14376 6995 ft 120 kts 335°
2026-05-07 02:56 37.92699 -81.14502 6999 ft 122 kts 335°
2026-05-07 02:56 37.93552 -81.14629 6995 ft 124 kts 335°
2026-05-07 02:56 37.94400 -81.14753 6987 ft 121 kts 335°
2026-05-07 02:56 37.95233 -81.14877 6984 ft 120 kts 335°
2026-05-07 02:57 37.96056 -81.15000 6982 ft 121 kts 335°
2026-05-07 02:57 37.96894 -81.15126 6986 ft 122 kts 335°
2026-05-07 02:57 37.97738 -81.15251 6982 ft 122 kts 335°
2026-05-07 02:57 37.98582 -81.15376 6983 ft 122 kts 335°
2026-05-07 02:58 37.99422 -81.15501 6981 ft 122 kts 335°
2026-05-07 02:58 38.00266 -81.15626 6977 ft 122 kts 335°
2026-05-07 02:58 38.01103 -81.15751 6974 ft 121 kts 335°
2026-05-07 02:58 38.01944 -81.15878 6977 ft 123 kts 335°
2026-05-07 02:59 38.02806 -81.16007 6978 ft 127 kts 336°
2026-05-07 02:59 38.03703 -81.16141 6973 ft 132 kts 337°
2026-05-07 02:59 38.04614 -81.16273 6972 ft 131 kts 336°
2026-05-07 02:59 38.05515 -81.16404 6966 ft 129 kts 336°
2026-05-07 03:00 38.06397 -81.16533 6958 ft 125 kts 335°
2026-05-07 03:00 38.07258 -81.16665 6960 ft 125 kts 335°
2026-05-07 03:00 38.08121 -81.16793 6950 ft 122 kts 335°
2026-05-07 03:00 38.08948 -81.16917 6952 ft 119 kts 334°
2026-05-07 03:01 38.09771 -81.17044 6949 ft 119 kts 335°
2026-05-07 03:01 38.10586 -81.17165 6953 ft 117 kts 335°
2026-05-07 03:01 38.11409 -81.17291 6952 ft 120 kts 336°
2026-05-07 03:01 38.12239 -81.17412 6955 ft 120 kts 336°
2026-05-07 03:02 38.13068 -81.17538 6953 ft 120 kts 337°
2026-05-07 03:02 38.13893 -81.17661 6954 ft 120 kts 336°
2026-05-07 03:02 38.14699 -81.17778 6939 ft 111 kts 338°
2026-05-07 03:02 38.15466 -81.17897 6952 ft 115 kts 336°
2026-05-07 03:03 38.16286 -81.18023 6957 ft 121 kts 337°
2026-05-07 03:03 38.17121 -81.18145 6957 ft 123 kts 337°
2026-05-07 03:03 38.17962 -81.18268 6960 ft 122 kts 337°
2026-05-07 03:03 38.18816 -81.18397 6961 ft 125 kts 338°
2026-05-07 03:04 38.19689 -81.18526 6956 ft 126 kts 338°
2026-05-07 03:04 38.20544 -81.18651 6947 ft 121 kts 338°
2026-05-07 03:04 38.21379 -81.18778 6947 ft 121 kts 337°
2026-05-07 03:04 38.22188 -81.18898 6958 ft 115 kts 336°
2026-05-07 03:05 38.23009 -81.19028 6960 ft 123 kts 338°
2026-05-07 03:05 38.23871 -81.19156 6963 ft 126 kts 339°
2026-05-07 03:05 38.24740 -81.19284 6963 ft 126 kts 339°
2026-05-07 03:05 38.25602 -81.19411 6965 ft 124 kts 339°
2026-05-07 03:06 38.26465 -81.19542 6968 ft 127 kts 339°
2026-05-07 03:06 38.27351 -81.19673 6967 ft 128 kts 340°
2026-05-07 03:06 38.28237 -81.19805 6971 ft 128 kts 339°
2026-05-07 03:06 38.29097 -81.19931 6953 ft 124 kts 338°
2026-05-07 03:07 38.29923 -81.20053 6954 ft 117 kts 338°
2026-05-07 03:07 38.30718 -81.20176 6960 ft 113 kts 337°
2026-05-07 03:07 38.31500 -81.20296 6957 ft 114 kts 338°
2026-05-07 03:07 38.32303 -81.20421 6972 ft 118 kts 339°
2026-05-07 03:08 38.33128 -81.20546 6958 ft 120 kts 339°
2026-05-07 03:08 38.33969 -81.20671 6966 ft 122 kts 340°
2026-05-07 03:08 38.34815 -81.20796 6970 ft 122 kts 340°
2026-05-07 03:08 38.35646 -81.20920 6968 ft 119 kts 340°
2026-05-07 03:09 38.36466 -81.21043 6966 ft 118 kts 340°
2026-05-07 03:09 38.37276 -81.21165 6968 ft 117 kts 340°
2026-05-07 03:09 38.38089 -81.21289 6963 ft 117 kts 340°
2026-05-07 03:09 38.38883 -81.21408 6967 ft 115 kts 340°
2026-05-07 03:10 38.39688 -81.21530 6968 ft 118 kts 340°
2026-05-07 03:10 38.40527 -81.21657 6981 ft 121 kts 340°
2026-05-07 03:10 38.41364 -81.21782 6974 ft 124 kts 341°
2026-05-07 03:10 38.42216 -81.21908 6972 ft 123 kts 341°
2026-05-07 03:11 38.43058 -81.22033 6974 ft 121 kts 340°
2026-05-07 03:11 38.43885 -81.22157 6970 ft 118 kts 340°
2026-05-07 03:11 38.44706 -81.22282 6968 ft 119 kts 340°
2026-05-07 03:11 38.45526 -81.22407 6969 ft 119 kts 340°
2026-05-07 03:12 38.46352 -81.22532 6972 ft 120 kts 340°
2026-05-07 03:12 38.47185 -81.22657 6972 ft 121 kts 340°
2026-05-07 03:12 38.48016 -81.22782 6971 ft 120 kts 340°
2026-05-07 03:12 38.48837 -81.22905 6967 ft 118 kts 340°
2026-05-07 03:13 38.49647 -81.23029 6965 ft 117 kts 340°
2026-05-07 03:13 38.50458 -81.23153 6967 ft 118 kts 340°
2026-05-07 03:13 38.51269 -81.23275 6968 ft 119 kts 341°
2026-05-07 03:13 38.52095 -81.23399 6971 ft 120 kts 341°
2026-05-07 03:14 38.52929 -81.23525 6982 ft 121 kts 341°
2026-05-07 03:14 38.53769 -81.23651 6983 ft 122 kts 341°
2026-05-07 03:14 38.55454 -81.23905 6977 ft 122 kts 341°
2026-05-07 03:15 38.56292 -81.24030 6966 ft 121 kts 341°
2026-05-07 03:15 38.57129 -81.24158 6968 ft 121 kts 341°
2026-05-07 03:15 38.57964 -81.24284 6968 ft 121 kts 341°
2026-05-07 03:15 38.58798 -81.24410 6968 ft 121 kts 341°
2026-05-07 03:16 38.59641 -81.24539 6975 ft 123 kts 341°
2026-05-07 03:16 38.60487 -81.24666 6968 ft 122 kts 341°
2026-05-07 03:16 38.61327 -81.24793 6964 ft 122 kts 341°
2026-05-07 03:16 38.62177 -81.24923 6976 ft 124 kts 342°
2026-05-07 03:17 38.63049 -81.25056 6970 ft 128 kts 342°
2026-05-07 03:17 38.63951 -81.25191 6969 ft 132 kts 343°
2026-05-07 03:17 38.64865 -81.25327 6968 ft 131 kts 343°
2026-05-07 03:17 38.65753 -81.25458 6961 ft 126 kts 342°
2026-05-07 03:18 38.66605 -81.25588 6958 ft 121 kts 342°
2026-05-07 03:18 38.67442 -81.25718 6964 ft 125 kts 342°
2026-05-07 03:18 38.68323 -81.25854 6969 ft 130 kts 343°
2026-05-07 03:18 38.69228 -81.25989 6976 ft 132 kts 343°
2026-05-07 03:19 38.70153 -81.26129 6969 ft 135 kts 343°
2026-05-07 03:19 38.71085 -81.26268 6964 ft 134 kts 343°
2026-05-07 03:19 38.71997 -81.26404 6964 ft 131 kts 343°
2026-05-07 03:19 38.72900 -81.26542 6961 ft 130 kts 343°
2026-05-07 03:20 38.73791 -81.26679 6957 ft 128 kts 343°
2026-05-07 03:20 38.74664 -81.26812 6956 ft 124 kts 342°
2026-05-07 03:20 38.75514 -81.26942 6956 ft 123 kts 342°
2026-05-07 03:20 38.76366 -81.27075 6955 ft 124 kts 343°
2026-05-07 03:21 38.77228 -81.27206 6954 ft 124 kts 343°
2026-05-07 03:21 38.78073 -81.27333 6953 ft 122 kts 342°
2026-05-07 03:21 38.78911 -81.27461 6963 ft 121 kts 342°
2026-05-07 03:21 38.79748 -81.27589 6962 ft 121 kts 343°
2026-05-07 03:22 38.80586 -81.27717 6965 ft 121 kts 342°
2026-05-07 03:22 38.81423 -81.27845 6962 ft 121 kts 342°
2026-05-07 03:22 38.82250 -81.27970 6964 ft 119 kts 342°
2026-05-07 03:22 38.83073 -81.28096 6963 ft 119 kts 342°
2026-05-07 03:23 38.83893 -81.28222 6964 ft 119 kts 342°
2026-05-07 03:23 38.84720 -81.28348 6963 ft 119 kts 342°
2026-05-07 03:23 38.85545 -81.28475 6970 ft 121 kts 342°
2026-05-07 03:23 38.86398 -81.28606 6981 ft 126 kts 343°
2026-05-07 03:24 38.87284 -81.28738 6999 ft 129 kts 343°
2026-05-07 03:24 38.88177 -81.28872 6980 ft 129 kts 343°
2026-05-07 03:24 38.89060 -81.29006 6978 ft 130 kts 343°
2026-05-07 03:24 38.89960 -81.29142 6978 ft 130 kts 343°
2026-05-07 03:25 38.90847 -81.29277 6970 ft 127 kts 343°
2026-05-07 03:25 38.91709 -81.29409 6966 ft 123 kts 342°
2026-05-07 03:25 38.92558 -81.29541 6964 ft 122 kts 342°
2026-05-07 03:25 38.93399 -81.29669 6964 ft 121 kts 342°
2026-05-07 03:26 38.94233 -81.29798 6966 ft 121 kts 342°
2026-05-07 03:26 38.95069 -81.29928 6964 ft 122 kts 343°
2026-05-07 03:26 38.95913 -81.30057 6968 ft 122 kts 343°
2026-05-07 03:26 38.96763 -81.30186 6969 ft 124 kts 343°
2026-05-07 03:27 38.97611 -81.30314 6970 ft 122 kts 343°
2026-05-07 03:27 38.98457 -81.30444 6971 ft 123 kts 343°
2026-05-07 03:27 38.99302 -81.30574 6973 ft 122 kts 343°
2026-05-07 03:27 39.00152 -81.30704 6972 ft 123 kts 343°
2026-05-07 03:28 39.01002 -81.30833 6974 ft 123 kts 343°
2026-05-07 03:28 39.01850 -81.30964 6975 ft 123 kts 343°
2026-05-07 03:28 39.02695 -81.31092 6973 ft 121 kts 343°
2026-05-07 03:28 39.03528 -81.31220 6976 ft 121 kts 343°
2026-05-07 03:29 39.04369 -81.31349 6975 ft 121 kts 343°
2026-05-07 03:29 39.05205 -81.31478 6968 ft 121 kts 343°
2026-05-07 03:29 39.06022 -81.31602 6966 ft 119 kts 343°
2026-05-07 03:29 39.06841 -81.31729 6968 ft 119 kts 343°
2026-05-07 03:30 39.07664 -81.31856 6972 ft 120 kts 343°
2026-05-07 03:30 39.08499 -81.31984 6975 ft 121 kts 343°
2026-05-07 03:30 39.09341 -81.32113 6975 ft 122 kts 343°
2026-05-07 03:30 39.10187 -81.32243 6978 ft 122 kts 343°
2026-05-07 03:31 39.11031 -81.32372 6979 ft 121 kts 343°
2026-05-07 03:31 39.11868 -81.32500 6976 ft 120 kts 343°
2026-05-07 03:31 39.12695 -81.32627 6974 ft 119 kts 343°
2026-05-07 03:31 39.13520 -81.32754 6975 ft 119 kts 343°
2026-05-07 03:32 39.14344 -81.32882 6974 ft 119 kts 342°
2026-05-07 03:32 39.15162 -81.33007 6966 ft 117 kts 343°
2026-05-07 03:32 39.15951 -81.33129 6971 ft 114 kts 342°
2026-05-07 03:32 39.16749 -81.33253 6974 ft 116 kts 343°
2026-05-07 03:33 39.17548 -81.33377 6977 ft 118 kts 343°
2026-05-07 03:33 39.18366 -81.33501 6976 ft 118 kts 343°
2026-05-07 03:33 39.19179 -81.33627 6978 ft 118 kts 343°
2026-05-07 03:33 39.19995 -81.33753 6981 ft 119 kts 343°
2026-05-07 03:34 39.20824 -81.33880 6984 ft 121 kts 343°
2026-05-07 03:34 39.21659 -81.34007 6983 ft 120 kts 343°
2026-05-07 03:34 39.22474 -81.34131 6981 ft 116 kts 343°
2026-05-07 03:34 39.23280 -81.34256 6983 ft 117 kts 343°
2026-05-07 03:35 39.23818 -81.34341 6989 ft 118 kts 343°
2026-05-07 03:35 39.24646 -81.34469 6987 ft 121 kts 343°
2026-05-07 03:35 39.25489 -81.34598 6989 ft 122 kts 343°
2026-05-07 03:35 39.26335 -81.34727 6985 ft 122 kts 343°
2026-05-07 03:36 39.27175 -81.34856 6982 ft 121 kts 343°
2026-05-07 03:36 39.28009 -81.34986 6986 ft 121 kts 343°
2026-05-07 03:36 39.28845 -81.35114 6984 ft 121 kts 343°
2026-05-07 03:36 39.29675 -81.35242 6985 ft 120 kts 343°
2026-05-07 03:37 39.30505 -81.35371 6987 ft 121 kts 343°
2026-05-07 03:37 39.31343 -81.35500 6985 ft 121 kts 343°
2026-05-07 03:37 39.32176 -81.35629 6985 ft 120 kts 343°
2026-05-07 03:37 39.33004 -81.35757 6982 ft 119 kts 344°
2026-05-07 03:38 39.33826 -81.35884 6984 ft 119 kts 343°
2026-05-07 03:38 39.34651 -81.36012 6988 ft 120 kts 343°
2026-05-07 03:38 39.35485 -81.36141 6984 ft 121 kts 344°
2026-05-07 03:38 39.36319 -81.36269 6983 ft 120 kts 343°
2026-05-07 03:39 39.37146 -81.36398 6987 ft 120 kts 344°
2026-05-07 03:39 39.37977 -81.36527 6990 ft 121 kts 344°
2026-05-07 03:39 39.38817 -81.36656 6992 ft 121 kts 344°
2026-05-07 03:39 39.39656 -81.36785 6993 ft 121 kts 344°
2026-05-07 03:40 39.40496 -81.36916 6992 ft 122 kts 344°
2026-05-07 03:40 39.41338 -81.37046 6990 ft 121 kts 344°
2026-05-07 03:40 39.42175 -81.37176 6991 ft 121 kts 344°
2026-05-07 03:40 39.43010 -81.37305 6992 ft 120 kts 344°
2026-05-07 03:41 39.43848 -81.37375 6992 ft 125 kts 358°
2026-05-07 03:41 39.44687 -81.36951 6993 ft 135 kts 29°
2026-05-07 03:41 39.45439 -81.36217 6994 ft 136 kts 30°
2026-05-07 03:41 39.46201 -81.35486 6988 ft 136 kts 31°
2026-05-07 03:42 39.46957 -81.34759 6993 ft 135 kts 30°
2026-05-07 03:42 39.47700 -81.34047 6986 ft 134 kts 30°
2026-05-07 03:42 39.48448 -81.33329 6992 ft 134 kts 30°
2026-05-07 03:42 39.49198 -81.32609 6985 ft 135 kts 30°
2026-05-07 03:43 39.49949 -81.31889 6988 ft 134 kts 30°
2026-05-07 03:43 39.50701 -81.31168 6991 ft 135 kts 30°
2026-05-07 03:43 39.51450 -81.30447 6989 ft 133 kts 30°
2026-05-07 03:43 39.52198 -81.29730 6986 ft 134 kts 30°
2026-05-07 03:44 39.52910 -81.29033 6906 ft 124 kts 31°
2026-05-07 03:44 39.53587 -81.28375 6749 ft 119 kts 30°
2026-05-07 03:44 39.54254 -81.27737 6600 ft 119 kts 31°
2026-05-07 03:44 39.54922 -81.27099 6453 ft 121 kts 31°
2026-05-07 03:45 39.55612 -81.26439 6313 ft 125 kts 32°
2026-05-07 03:45 39.56326 -81.25757 6161 ft 127 kts 33°
2026-05-07 03:45 39.57006 -81.25090 6001 ft 120 kts 33°
2026-05-07 03:45 39.57657 -81.24460 5838 ft 114 kts 32°
2026-05-07 03:46 39.58284 -81.23857 5676 ft 111 kts 33°
2026-05-07 03:46 39.58892 -81.23273 5516 ft 110 kts 33°
2026-05-07 03:46 39.59504 -81.22683 5355 ft 106 kts 33°
2026-05-07 03:46 39.60087 -81.22123 5198 ft 105 kts 34°
2026-05-07 03:47 39.60676 -81.21556 5042 ft 105 kts 34°
2026-05-07 03:47 39.61258 -81.20996 4883 ft 103 kts 34°
2026-05-07 03:47 39.61832 -81.20443 4728 ft 102 kts 35°
2026-05-07 03:47 39.62397 -81.19899 4593 ft 100 kts 34°
2026-05-07 03:48 39.62947 -81.19370 4450 ft 98 kts 34°
2026-05-07 03:48 39.63490 -81.18846 4328 ft 97 kts 34°
2026-05-07 03:48 39.64044 -81.18305 4212 ft 101 kts 36°
2026-05-07 03:48 39.64604 -81.17767 4078 ft 101 kts 34°
2026-05-07 03:49 39.65168 -81.17227 3950 ft 98 kts 34°
2026-05-07 03:49 39.65700 -81.16713 3819 ft 96 kts 34°
2026-05-07 03:49 39.66232 -81.16200 3689 ft 94 kts 34°
2026-05-07 03:49 39.66756 -81.15695 3562 ft 93 kts 34°
2026-05-07 03:50 39.67274 -81.15194 3436 ft 92 kts 34°
2026-05-07 03:50 39.67791 -81.14695 3308 ft 93 kts 34°
2026-05-07 03:50 39.68308 -81.14195 3182 ft 93 kts 34°
2026-05-07 03:50 39.68831 -81.13692 3061 ft 95 kts 35°
2026-05-07 03:51 39.69353 -81.13188 2991 ft 90 kts 34°
2026-05-07 03:51 39.69867 -81.12696 2996 ft 93 kts 34°
2026-05-07 03:51 39.70391 -81.12190 2997 ft 93 kts 34°
2026-05-07 03:51 39.70933 -81.11737 2992 ft 92 kts 17°
2026-05-07 03:52 39.71556 -81.11601 2882 ft 91 kts
2026-05-07 03:52 39.72189 -81.11463 2758 ft 93 kts
2026-05-07 03:52 39.72814 -81.11333 2633 ft 92 kts
2026-05-07 03:52 39.73443 -81.11202 2505 ft 90 kts
2026-05-07 03:53 39.74048 -81.11074 2372 ft 86 kts
2026-05-07 03:53 39.74639 -81.10950 2247 ft 88 kts
2026-05-07 03:53 39.75234 -81.10827 2194 ft 82 kts
2026-05-07 03:53 39.75787 -81.10716 2183 ft 78 kts
2026-05-07 03:54 39.76293 -81.10452 2170 ft 80 kts 38°
2026-05-07 03:54 39.76605 -81.09841 2148 ft 83 kts 66°
2026-05-07 03:54 39.76801 -81.09130 2051 ft 84 kts 68°
2026-05-07 03:54 39.76976 -81.08410 1940 ft 83 kts 70°
2026-05-07 03:55 39.77128 -81.07706 1862 ft 78 kts 72°
2026-05-07 03:55 39.77435 -81.07164 1744 ft 77 kts 20°
2026-05-07 03:55 39.77931 -81.07303 1686 ft 75 kts 335°
2026-05-07 03:55 39.78375 -81.07627 1612 ft 73 kts 324°
2026-05-07 03:56 39.78562 -81.08217 1491 ft 77 kts 268°
2026-05-07 03:56 39.78399 -81.08853 1351 ft 72 kts 246°
2026-05-07 03:56 39.78206 -81.09404 1258 ft 63 kts 250°
2026-05-07 03:56 39.78035 -81.09904 1199 ft 56 kts 250°
2026-05-07 03:57 39.77897 -81.10308 1195 ft 43 kts 245°
2026-05-07 03:57 39.77787 -81.10624 1196 ft 34 kts 245°
2026-05-07 03:57 39.77704 -81.10852 1198 ft 18 kts 224°
2026-05-07 03:57 39.77714 -81.10871 1198 ft 7 kts 74°
2026-05-07 03:58 39.77725 -81.10811 1199 ft 8 kts 70°
2026-05-07 03:58 39.77745 -81.10751 1199 ft 7 kts 66°
2026-05-07 03:58 39.77770 -81.10678 1197 ft 13 kts 66°
2026-05-07 03:58 39.77818 -81.10532 1196 ft 19 kts 71°
2026-05-07 03:59 39.77866 -81.10391 1196 ft 16 kts 65°
2026-05-07 03:59 39.77909 -81.10268 1195 ft 14 kts 71°
2026-05-07 03:59 39.77952 -81.10139 1196 ft 15 kts 65°
2026-05-07 03:59 39.77981 -81.10034 1197 ft 11 kts 111°
2026-05-07 04:00 39.77922 -81.09993 1197 ft 8 kts 157°
2026-05-07 04:00 39.77899 -81.09977 1199 ft 0 kts 146°